Location: *
(45.1333°S, 169.6333°W)
Time: 19:31:16
(UTC+00:00)

Cosmos 1980 Rocket - Pass Details

Date: 26 May 2022
Orbit: 827 x 851 km, 71.0° (Epoch: 01 July)

Event Time Altitude Azimuth Distance (km) Brightness Sun altitude
Rises 04:36:47 0° 200° (SSW) 3,414 5.4 -8.3°
Reaches altitude 10° 04:39:31 10° 190° (S) 2,471 4.5 -8.8°
Maximum altitude 04:44:34 32° 127° (SE) 1,414 2.9 -9.6°
Drops below altitude 10° 04:49:32 10° 65° (ENE) 2,445 4.2 -10.4°
Sets 04:52:14 0° 54° (NE) 3,372 5.0 -10.9°
